Theta_e
324 320 320 320 320 320 319 319 319 318 319 319 319 317 316 314 314 311 313 314 313 311 308 305 305 306 308 312 316 317 319 322 325 327 328 328 327 324 324 324 325 326 325
316 315 317 318 319 319 318 316 317 318 318 318 318 316 316 314 312 311 313 313 311 309 308 305 305 305 306 308 314 318 319 320 323 326 327 327 327 327 326 325 325 324 323
316 315 316 317 319 318 317 316 317 318 318 317 317 317 316 315 313 311 310 312 310 309 309 306 306 306 306 306 306 307 314 319 319 320 323 325 326 326 327 326 326 326 324
318 316 315 316 317 318 316 318 317 317 318 317 317 317 316 315 314 312 311 311 310 309 310 309 306 305 305 306 306 306 305 305 307 315 318 320 321 323 324 325 326 326 326
317 317 316 316 316 317 317 317 317 317 317 317 317 317 317 316 315 313 312 311 311 310 310 310 309 308 305 305 306 306 306 305 305 305 305 311 317 319 320 322 323 325 325
316 315 313 313 313 314 314 314 315 315 316 316 315 316 316 315 315 315 313 311 311 310 310 309 309 309 308 306 305 305 305 305 305 304 304 304 305 310 317 320 321 322 322
315 314 314 314 313 312 312 312 311 311 311 314 315 316 315 314 316 317 316 313 311 311 310 309 309 308 308 307 304 304 304 304 304 304 304 303 303 304 305 311 319 320 321
315 314 312 311 310 309 309 308 308 310 311 312 313 314 314 313 313 313 314 315 313 312 311 310 309 309 308 308 306 305 304 304 304 304 304 303 302 303 302 303 307 314 319
314 311 309 308 306 306 307 307 304 306 308 309 310 311 312 312 312 312 313 314 314 313 312 311 310 309 308 308 307 305 305 304 303 304 304 303 302 301 302 301 302 304 307
308 307 306 305 305 305 305 305 306 307 307 307 307 308 309 309 309 309 310 310 311 312 312 312 311 310 308 307 307 305 304 304 303 303 303 303 303 303 303 301 301 300 301
307 306 305 304 303 303 302 305 306 306 306 307 306 305 305 304 305 306 306 307 307 309 310 310 311 310 308 308 306 304 303 303 303 303 302 303 303 304 304 303 300 300 299
306 304 302 301 302 303 304 305 305 302 302 301 301 299 299 299 299 299 299 301 301 304 307 308 309 308 308 306 304 303 303 303 303 302 302 302 302 303 302 301 299 300 299
303 302 301 301 303 303 301 301 300 300 300 299 298 297 297 297 297 297 296 296 296 298 300 302 305 305 306 303 302 303 302 301 301 301 300 300 300 300 300 298 297 297 297
301 301 301 301 300 299 299 299 299 299 297 297 297 295 295 295 295 294 294 294 294 294 295 297 298 299 301 300 299 300 300 300 299 299 300 299 298 296 295 295 295 295 294
300 300 299 297 298 298 298 297 296 296 296 296 296 296 296 295 295 294 294 293 293 293 293 294 295 295 296 298 298 298 298 297 297 297 297 296 295 294 292 293 293 293 292
299 298 297 297 295 295 295 295 293 295 294 294 293 293 293 293 293 293 293 293 293 293 292 292 292 292 293 293 294 294 294 295 295 296 295 295 294 294 293 292 291 291 291
297 297 297 296 295 295 295 295 295 294 294 293 293 293 293 292 292 292 291 291 292 292 293 293 292 292 292 292 292 292 293 293 293 293 293 293 293 293 292 292 291 289 289
297 297 296 296 296 295 294 294 293 293 292 292 291 290 290 290 290 290 290 290 291 291 291 291 291 291 291 291 291 291 291 292 292 293 293 293 293 292 292 291 291 291 289
296 295 295 294 294 293 292 292 291 291 291 291 289 288 289 289 289 289 289 289 290 290 289 290 289 289 289 290 290 290 290 291 291 291 291 292 292 292 292 291 291 290 290
295 294 293 293 292 291 291 290 290 290 289 289 288 286 287 287 288 288 289 288 288 289 288 288 288 288 289 289 289 290 290 291 291 291 291 291 291 291 291 291 291 290 290
293 293 292 291 290 290 290 289 289 288 288 287 287 285 286 287 287 288 288 287 286 286 286 286 286 287 287 288 289 289 289 289 289 290 290 291 291 291 291 291 291 291 291
293 291 290 290 289 289 289 288 288 287 287 286 285 284 286 286 287 287 287 287 286 285 285 285 285 284 285 285 286 287 287 287 287 287 288 288 288 288 288 289 290 290 290
290 290 289 289 289 288 288 287 287 286 285 284 284 284 284 285 285 285 285 285 285 284 284 284 284 284 284 285 285 285 286 286 286 286 287 288 288 288 288 288 288 288 289
289 289 288 288 288 287 286 286 286 284 283 282 282 282 282 283 283 283 283 284 284 285 284 284 285 285 286 286 286 286 286 287 286 286 287 286 286 287 287 287 287 287 287
289 288 288 288 287 286 285 284 284 283 282 281 281 281 282 282 282 282 283 283 283 283 284 284 285 285 285 285 285 285 285 285 284 284 285 286 287 287 287 287 287 287 287
288 288 288 288 286 284 284 284 283 283 282 281 281 281 281 281 282 283 283 283 283 283 283 283 283 284 284 284 285 285 286 285 285 285 285 285 285 286 286 287 288 288 288
Wind_Speed
6 5 7 7 7 8 9 11 14 15 15 16 17 18 21 21 17 18 20 23 21 24 21 18 17 17 16 15 15 16 18 19 20 22 22 21 21 21 22 22 23 22 21
5 6 8 8 7 8 12 16 18 17 17 17 18 17 22 25 22 19 18 20 23 23 20 20 18 17 17 16 16 16 18 20 22 21 22 22 21 20 24 24 25 24 24
6 9 9 10 10 13 16 17 17 19 20 20 22 22 21 25 26 22 22 24 26 25 23 21 21 20 19 19 18 18 18 20 21 23 24 23 22 22 25 25 27 26 28
11 12 12 13 15 18 21 19 21 22 22 24 26 25 26 26 27 28 26 26 26 26 26 24 22 23 22 22 21 21 20 20 21 21 22 25 27 26 24 22 26 30 31
8 14 16 15 17 21 22 22 25 25 26 26 28 28 28 28 30 30 30 29 30 25 26 26 25 25 26 25 23 23 23 21 21 22 22 22 22 25 27 26 27 27 33
16 17 18 28 25 23 24 25 26 28 31 32 33 34 34 35 35 33 30 33 32 32 30 31 27 27 27 26 26 25 24 23 21 20 20 21 22 21 23 26 28 26 31
20 23 28 30 26 25 23 26 28 29 31 28 31 33 34 35 34 34 37 38 36 35 36 35 37 37 33 31 31 30 29 25 22 22 20 20 21 22 22 23 22 23 27
20 25 23 23 21 25 28 27 24 26 27 26 27 31 34 35 30 30 36 39 42 42 40 38 39 38 35 33 27 29 29 28 26 23 23 23 21 21 22 23 22 24 23
20 17 18 20 21 23 25 26 27 27 30 29 25 27 31 30 30 28 29 28 25 37 39 36 38 41 38 32 27 28 29 31 28 25 23 23 21 19 20 22 23 23 23
18 16 19 20 22 24 27 31 24 25 28 33 29 24 26 29 23 28 31 32 35 29 33 39 37 30 38 41 30 27 26 28 29 27 25 23 23 21 20 20 23 25 25
17 20 21 23 27 30 26 19 20 21 21 22 23 27 32 34 34 24 29 27 26 33 28 32 32 35 31 34 33 23 23 25 26 25 23 23 22 24 25 26 24 24 25
21 23 25 27 26 20 21 22 22 27 27 30 27 29 28 27 27 28 28 36 33 31 29 24 27 31 29 34 29 26 23 27 30 30 31 27 25 27 29 29 29 27 25
27 28 26 23 24 24 27 27 26 25 22 24 32 29 23 22 22 20 17 20 24 30 32 37 33 25 32 21 28 25 30 24 23 28 30 28 28 30 31 31 30 30 29
23 22 22 22 26 26 24 23 23 24 29 24 19 16 15 13 13 15 14 14 19 18 18 18 17 24 20 16 14 22 22 19 23 25 31 33 31 32 32 32 31 30 30
19 23 29 30 23 23 24 25 25 24 21 17 16 12 15 14 17 19 16 16 12 15 23 19 17 15 17 11 19 13 14 13 19 23 28 30 28 30 31 31 31 31 31
26 27 27 22 21 19 20 18 17 15 16 16 17 19 18 19 18 21 21 21 19 19 22 22 20 21 17 17 16 13 16 15 24 23 22 26 28 31 30 30 31 33 33
28 22 18 22 19 15 16 16 17 18 18 17 17 18 19 22 21 22 20 21 22 23 29 27 25 22 21 20 20 21 21 23 26 27 29 32 30 28 27 27 30 34 36
15 17 19 21 17 19 20 22 22 20 22 21 18 21 23 22 22 23 24 22 23 24 26 29 25 23 25 24 23 23 25 26 24 24 22 24 25 26 25 27 31 31 32
21 19 18 19 20 21 22 21 22 22 18 21 23 25 26 26 26 26 24 24 24 26 26 29 31 28 27 27 27 27 25 25 26 27 32 31 31 33 35 36 37 34 34
17 17 18 19 22 23 23 24 22 23 26 29 35 30 27 26 27 26 26 27 29 28 26 27 28 26 24 24 26 28 23 20 23 23 25 26 23 23 27 28 29 30 33
16 20 21 21 22 23 24 22 25 28 31 35 37 34 25 23 25 26 29 27 25 27 28 29 28 26 24 21 21 21 22 24 27 26 26 27 31 30 25 25 26 29 29
18 20 21 21 21 19 24 27 29 31 34 36 38 29 23 26 23 23 22 21 22 24 29 28 34 34 34 34 32 27 27 28 32 32 32 34 31 35 37 37 34 29 30
20 20 21 21 19 18 23 28 33 33 34 35 26 25 28 26 26 26 26 27 28 29 29 28 29 29 29 25 24 26 28 30 32 31 29 30 28 31 29 31 31 31 32
20 21 20 20 23 25 29 31 34 33 34 27 24 27 27 28 28 27 26 27 26 24 25 25 28 30 28 27 25 28 28 31 32 30 29 33 32 33 31 32 32 32 32
20 20 17 23 30 34 29 23 28 31 30 28 28 23 23 26 25 25 26 29 28 26 23 24 26 30 28 27 30 31 34 35 38 37 36 30 29 28 28 29 27 28 29
19 21 26 26 30 29 24 25 25 28 29 27 30 28 27 24 24 20 18 18 22 24 27 31 27 29 29 30 26 26 25 29 32 33 29 27 34 30 30 28 24 16 20
Wind_Direction
272 304 306 337 318 325 318 301 291 288 290 290 296 297 293 290 276 282 264 266 273 276 275 264 260 259 261 259 253 248 246 245 243 241 240 239 237 229 227 224 224 229 234
314 333 317 324 328 307 295 302 312 316 311 302 300 281 284 288 291 261 266 268 270 272 272 265 256 253 254 254 252 248 246 241 239 238 240 240 241 235 233 227 226 229 235
293 304 313 307 309 294 292 304 295 291 292 292 289 289 288 289 290 290 257 257 261 270 272 263 256 251 248 252 254 250 246 245 243 242 241 242 241 238 230 227 232 228 229
304 303 298 292 292 286 298 298 291 293 292 289 288 284 282 278 277 279 278 273 262 257 269 268 257 254 250 248 249 252 251 248 247 245 241 239 240 241 242 239 232 233 231
270 281 293 296 295 294 298 297 295 292 290 288 288 287 288 284 278 271 266 268 268 257 253 262 264 260 252 251 249 248 250 251 250 250 248 244 242 242 242 240 237 236 235
290 293 313 318 311 298 292 287 286 284 285 287 286 283 282 273 269 270 271 263 261 262 251 248 250 251 251 249 248 247 248 248 251 252 255 253 250 247 245 242 240 239 234
291 301 306 303 287 286 284 282 284 287 286 286 289 286 283 282 275 274 269 260 257 255 257 250 250 249 250 250 245 244 244 243 244 251 254 253 254 253 252 249 244 245 244
285 289 302 305 302 294 294 296 297 298 294 292 288 289 290 289 287 284 272 266 260 255 249 248 247 247 241 249 237 240 239 242 245 250 255 259 255 251 252 252 251 242 239
295 304 300 305 307 304 302 295 301 295 297 292 289 285 291 285 295 283 272 273 281 262 247 252 252 244 237 237 236 235 240 238 242 245 253 256 258 258 254 253 252 251 243
304 292 302 304 299 296 294 300 295 284 284 289 293 285 275 284 309 301 287 277 271 274 262 247 234 246 241 229 232 229 235 239 238 241 244 251 258 261 263 260 255 252 251
291 302 297 298 300 303 311 303 287 285 287 284 286 294 287 282 282 295 295 292 275 271 275 255 254 243 227 229 225 235 238 241 241 237 232 242 251 263 271 270 263 256 253
307 308 308 309 306 293 284 283 288 297 292 293 289 304 298 303 302 300 297 292 293 275 268 268 263 260 246 234 228 218 243 246 246 247 246 243 251 259 261 263 265 262 257
314 310 312 297 290 292 296 295 294 294 294 293 306 304 297 295 295 299 306 304 305 299 289 272 270 261 245 241 229 214 223 248 246 245 252 251 252 251 251 253 257 261 263
309 301 302 303 305 308 303 301 307 307 309 302 305 314 314 313 310 308 308 315 317 314 314 309 309 282 239 232 260 228 228 241 242 250 254 262 261 252 248 249 253 258 261
303 296 308 312 307 304 306 309 305 304 302 300 281 279 294 294 307 304 304 306 308 306 305 295 299 301 309 279 266 236 245 265 265 260 260 266 261 255 253 251 252 254 259
308 310 313 314 315 319 317 318 323 319 317 316 314 321 317 310 307 305 310 298 288 284 279 302 305 306 291 287 294 295 279 275 263 261 262 266 269 271 265 260 259 257 256
304 311 309 312 326 321 314 316 315 316 310 309 306 302 299 305 303 299 293 291 290 284 274 288 296 297 290 295 290 284 278 267 265 267 268 269 270 272 273 271 266 261 256
307 299 297 304 310 309 313 308 308 300 299 298 306 305 302 299 299 293 290 291 287 284 286 291 291 284 282 283 279 271 266 263 262 264 270 271 269 268 266 267 270 268 263
296 310 314 325 321 321 312 308 308 305 288 283 292 296 296 295 293 289 287 290 288 286 283 286 288 283 278 276 279 277 271 269 268 267 264 265 267 268 269 270 273 276 275
327 323 318 314 311 310 308 302 295 289 292 297 302 301 288 289 292 290 281 282 281 278 276 277 279 286 284 283 279 275 269 271 273 269 264 260 260 263 266 268 268 266 271
304 307 316 311 311 310 302 305 306 304 305 304 304 304 295 290 288 289 290 289 284 286 283 277 281 280 278 280 282 278 268 268 263 261 262 256 256 257 258 262 262 263 269
307 313 312 312 313 317 308 310 305 303 304 304 306 306 303 297 294 295 297 284 268 268 274 279 283 281 279 276 273 279 281 278 279 266 273 273 268 267 267 266 264 265 267
310 312 312 313 310 307 309 304 303 307 309 309 304 298 294 294 287 292 291 288 288 290 291 286 282 279 281 283 278 277 273 275 274 275 273 271 271 271 269 270 269 267 261
311 310 312 303 299 303 301 296 300 308 312 316 302 297 293 292 294 295 294 290 288 284 284 286 284 286 284 287 272 271 274 278 273 273 264 270 269 268 271 273 274 272 271
310 312 302 301 307 312 316 317 312 315 320 322 326 318 311 305 303 297 289 288 287 286 285 282 280 274 276 274 277 278 277 279 277 275 269 268 267 267 272 274 275 275 272
312 304 305 307 313 318 320 317 316 311 311 314 318 314 311 308 307 303 301 299 292 285 287 292 282 276 278 281 278 273 275 273 274 276 274 258 265 270 277 279 278 277 274